ONEWEB-0280, 48998

Orbit data source: Space-Track

ONEWEB-0280, 48998 is a payload satellite owned by One Web (NAA) (UK) in LEO that was launched on Thu, 01 Jul 2021 UTC via a SOYUZ-2-1B launch vehicle from the Vostochny Cosmodrome (VOSTO). Payload-class satellites include a variety of spacecraft equipped with specific instruments for various scientific and technological missions. These include communications satellites like Starlink; space stations such as the ISS; scientific satellites like the Hubble; Earth observation satellites from companies like Planet Labs, Umbra, and HawkEye 360; GPS; miniature CubeSats for education and research; and military/defense satellites.

Loading next visibility...
Identifier
48998, 2021-060AH
Orbit
LEO
Country
Flag of UKUK
Related business
Manufacturer
One Web
Mission
Operational Commercial Communications
Bus & Motor
ARROW, Unknown motor
Mass
148 kg wet, ~140 kg dry
Launch date (UTC)
2021-07-01 (4 years ago)
Launch vehicle
SOYUZ-2-1B
Launch site
Vostochny Cosmodrome (VOSTO)
Object type
Payload
Rocket body
Debris
Shape & HBR
Trap Box + 2 Pan, 6.7 m
Radar Cross Section
3.464 m², Large (>1 m²)

Expand to show TLE details & history
Last TLE update: 20 hours ago

TLE from 20 hours ago
0 ONEWEB-0280
1 48998U 21060AH  25348.76817887  .00000052  00000-0  10124-3 0  9999
2 48998  87.9047 265.4968 0001590  61.0368 299.0922 13.16594094215298
Epoch: 2025-12-14T18:26Z
TLE epoch observation values (Epoch: 2025-12-14T18:26:10.654Z)
Latitude
-0.00003°
Longitude
-94.72395°
Altitude
1,200.069 km
Speed
7.254 km/s
True Right ascension
17h 41m 59s
True Declination
0° 00' 00"
Sunlit
Object was in daylight at epoch
Visualization orbit readout
Latitude
Unknown
Longitude
Unknown
Altitude
Unknown
Speed
Unknown
Apparent Right ascension
Unknown
Apparent Declination
Unknown
Sunlit
N/A
Visualization observer readout
Local Sidereal Time
13:24:32
Azimuth
Unknown
Elevation
Unknown
Doppler factor
Unknown
Orbital elements
Apogee altitude
1,196.072 km
Perigee altitude
1,193.664 km
Semi-major axis
7,573.005 km
Eccentricity
0.00016
Inclination
87.9047°
RAAN
265.4968°
Arg. of periapsis
61.0368°
True anomaly
299.07628°
Mean anomaly
299.0922°
Eccentric anomaly
299.08424°
Mean motion
3.29337 °/min
Orbital period
109.31 mins
BSTAR
0.00010124
Loading maneuver chart data...
Computing Atmospheric mass density...
Loading historical data...
Loading historical data...
Loading historical data...
Loading historical data...
Loading historical data...
Loading historical data...
Loading historical data...

Documentation

Showing up to 5 results
|